星链-11102 [DTC] (STARLINK-11102 [DTC] )

导读 | 豆包AI

STARLINK-11102(星链-11102)是美国SpaceX星链卫星互联网项目的低轨通信卫星,属于DTC直连手机系列,于2024年6月19日发射。它运行在近地轨道,采用Starlink v2.0 mini平台,搭载先进通信技术,可实现高速低延迟传输,目标是为无基站覆盖的偏远区域提供手机直连宽带服务,是SpaceX推进全球无缝网络覆盖的重要组成部分,目前在轨正常运行。

基本信息
目录编号:
60065
目录名称:
STARLINK-11102
国际标识:
2024-113G
轨道中心:
EARTH
卫星名称:
星链-11102 [DTC]
卫星全名:
星链-11102 [DTC] (STARLINK-11102 [DTC] )
卫星状态:
在轨 (已飞行634 天)
发射日期:
2024-06-19 UTC
国别 :
美国 (US)
星等 :
--
轨道信息
数据来源 国际轨道数据
星历时间: 2026-03-14T20:37:28+0800
1天前
查看轨道信息
半长轴: 6737.917km
偏心率: 0.0001301
轨道倾角: 53.161°
近地点辐角 55.942°
升交点赤经 167.164°
平近点角 304.172°
近地点: 358.903km
远地点: 360.657km
周期: 91.738分钟
每日圈数: 15.696914
详细信息
固有亮度:
5
最大亮度:
0.3
卫星平台:
Starlink v2.0 mini
覆盖范围:
全球
运营商:
太空探索技术公司
运营商所在国:
美国
制造商(研发单位):
太空探索技术公司
制造商所在国:
美国
使用方式:
暂无
卫星简介
星链(Starlink)计划是由太空探索技术公司(SpaceX)提出的一个巨型低轨卫星互联网星座项目,计划在2019年至2024年间在太空搭建由约1.2万颗卫星组成的“星链”网络,其中1584颗将部署在地球上空550千米处的近地轨道,并从2020年开始工作。该卫星仍在工作。
2D轨道图
3D轨道图
轨道高度分析图
轨道倾角分析图
轨道综合分析图
查看轨道综合分析图